Regional Weather Roundup
Issued by NWS

Home | Current Version | Previous Version | Text Only | Print | Product List | Glossary On
Versions: 1 2 3 4 5 6 7 8 9 10 11 12 13 14 15 16 17 18 19 20 21 22 23 24 25 26 27 28 29 30 31 32 33 34 35 36 37 38 39 40 41 42 43 44 45 46 47 48 49 50
000
ASHW40 PHFO 261033
RWRHI

WEATHER ROUNDUP FOR HAWAII
NATIONAL WEATHER SERVICE HONOLULU HI
1200 AM HST SUN FEB 26 2017

THIS IS AN AUTOMATED REPORT THAT HAS NOT BEEN QUALITY CONTROLLED.

NOTE..."FAIR" INDICATES FEW OR NO CLOUDS BELOW 12,000 FEET WITH NO
SIGNIFICANT WEATHER AND/OR OBSTRUCTIONS TO VISIBILITY.

* - THESE SITES REPORT LIMITED FIELDS

HIZ001>004-261100-
KAUAI-NIIHAU-

CITY           SKY/WX    TMP DP  RH WIND       PRES   REMARKS
LIHUE APT      CLOUDY    64  57  78 W9        30.06S
PORT ALLEN*      N/A     63 N/A N/A N7          N/A
POIPU*           N/A     61 N/A N/A VRB3        N/A
PRINCEVILLE*     N/A     63 N/A N/A S3          N/A
KOKOLE POINT*  NOT AVBL
MOLOAA DAIRY*    N/A     63  57  82 CALM        N/A
WAIMEA HTS*    NOT AVBL
PUU OPAE*      NOT AVBL
PUU LUA*       NOT AVBL
MAKAHA RIDGE*    N/A     61  52  72 CALM        N/A
$$

HIZ005>011-261100-
OAHU-

CITY           SKY/WX    TMP DP  RH WIND       PRES   REMARKS
HONOLULU       CLOUDY    69  61  75 N5        30.05S
KALAELOA       LGT RAIN  70  60  70 NE3       30.06S
KANEOHE MCB    NOT AVBL
WHEELER FIELD  FAIR      62  60  93 CALM      30.05
BELLOWS*         N/A    N/A N/A N/A E10         N/A
KAHUKU*          N/A    N/A N/A N/A SE2         N/A
WHEELER*       NOT AVBL
WAIANAE HARBOR NOT AVBL
DILLINGHAM*    NOT AVBL
KAHUKU TRN*      N/A     75  70  83 CALM        N/A
KAWAILOA*        N/A     63  59  88 SE2         N/A
KII*             N/A     68  63  83 S6          N/A
MAKUA RANGE*     N/A     66  57  72 W7          N/A
OAHU FOREST NW NOT AVBL
SCHOFIELD BRK*   N/A     73  72  94 MISG        N/A
SCHOFIELD S*   NOT AVBL
WAIANAE VLY*   NOT AVBL
KUAOKALA*      NOT AVBL
HONOULIUULI*   NOT AVBL
MOKUOLOE IS*   NOT AVBL
PALEHUA*       NOT AVBL
WAIAWA PHB*    NOT AVBL
$$

HIZ012>013-261100-
MOLOKAI-

CITY           SKY/WX    TMP DP  RH WIND       PRES   REMARKS
MOLOKAI AIRPT  CLOUDY    65  60  84 NE3       30.06R
KALAUPAPA      NOT AVBL
MAKAPULAPAI*     N/A    N/A N/A N/A SE6G16      N/A
MOLOKAI 1*     NOT AVBL
PUU ALII*        N/A     53  51  94 NE1         N/A
$$

HIZ016-261100-
KAHOOLAWE-

CITY           SKY/WX    TMP DP  RH WIND       PRES   REMARKS
KAHOOLAWE*     NOT AVBL
HAKIOAWA*        N/A     66  62  87 MISG      30.46S
HONOKANAIA*      N/A     72  62  70 NE10G18   29.99S
KANELOA*         N/A     66  59  77 NE12G18     N/A
KEALIALALO*    NOT AVBL
LUA MAKIKA*    NOT AVBL
$$

HIZ014>015-261100-
LANAI-

CITY           SKY/WX    TMP DP  RH WIND       PRES   REMARKS
LANAI CITY       N/A     61  57  87 E5        30.09F
LANAI 1*       NOT AVBL
$$

HIZ017>028-261100-
MAUI-

CITY           SKY/WX    TMP DP  RH WIND       PRES   REMARKS
KAHULUI        CLOUDY    66  60  81 SE8       30.04S
KAPALUA-W MAUI NOT AVBL
HANA AIRPORT   PTCLDY    66  64  94 SE2       30.07F
HANA*            N/A     68 N/A N/A S3          N/A
HALEAKALA SUMM   N/A     39   5  24 W2          N/A
MAALAEA BAY*     N/A     66 N/A N/A N1          N/A
HALEAKALA*     NOT AVBL
KAUPO GAP*     NOT AVBL
KULA 1*          N/A     46   7  19 E5          N/A
$$

HIZ023>026-261100-
BIG ISLAND OF HAWAII COAST AND LOWER SLOPES-

CITY           SKY/WX    TMP DP  RH WIND       PRES   REMARKS
KAILUA KONA    CLOUDY    71  57  61 E5        30.02S
HILO           CLOUDY    66  59  78 CALM      30.06F
HONOKAA*         N/A     61 N/A N/A VRB1        N/A
KAWAIHAE MWT*    N/A     72 N/A N/A NE2         N/A
KAWAIHAE*        N/A     72 N/A N/A NE3       30.03S
SOUTH POINT*     N/A     64 N/A N/A NW13        N/A
UPOLU AIRPORT* NOT AVBL
KAMUELA*       MOSUNNY   54  52  94 E5        30.12S
HAKALAU*         N/A     43  37  81 W3          N/A
KALOKO-HONOKO*   N/A     70  59  68 NE5       30.01F
PALI 2*          N/A     57  52  82 S5          N/A
KEALAKOMO*       N/A     72  59  64 N7          N/A
KAUPULEHU*     NOT AVBL
KAPAPALA*        N/A     57  56  96 NW3         N/A
LOWER KAHUKU*    N/A     55  52  88 N2G9        N/A
PUHE CS*         N/A     70  52  52 E3          N/A
PUHO CS*         N/A     69  54  58 E2          N/A
PTA KEAMUKU*     N/A     54  46  76 CALM        N/A
WAIKOLOA*      NOT AVBL
$$

HIZ027>028-261100-
BIG ISLAND OF HAWAII INTERIOR AND SUMMMITS-

CITY           SKY/WX    TMP DP  RH WIND       PRES   REMARKS
BRADSHAW FIELD MOCLDY    47  26  43 SE3       30.29S
MK VISITOR CEN NOT AVBL
MAUNA KEA*       N/A     28 -24   9 SW28        N/A  WCI  13
MAUNA LOA*       N/A     37 -44   2 MISG        N/A
MAUNA LOA 1*   NOT AVBL
PTA KIPUKA*      N/A     48  48 100 SE3         N/A
PTA RANGE 17*    N/A     48  45  87 NE3G9       N/A
PTA WEST*        N/A     64  61  88 SE8         N/A
NENE CABIN*      N/A     43  39  87 VRB3        N/A
AHUMOA*        NOT AVBL
PTA PORTABLE*  NOT AVBL
PUU MALI*        N/A     46  36  66 SE3         N/A
$$

HIC003-261100-
NORTHWEST ISLANDS-

CITY           SKY/WX    TMP DP  RH WIND       PRES   REMARKS
MIDWAY ISLAND  CLOUDY    61  55  82 E20       30.15S
MIDWAY NOS*      N/A     63 N/A N/A MISG      30.12F
FRENCH FRIGATE NOT AVBL
$$

PHZ110>124-180-261100-
BUOY REPORTS

STATION/POSITION TIME  TEMP    WIND        PRES    WAVE   SWELL
                       AIR SEA DIR/SP/G            HT/PER HT/DIR
                 (UTC) (F)     (DEG/KT/KT) (MB)    (FT/S) (FT/D)
BUOY 51001       1010   69 72  190/  4/  8 1017.0
BUOY 51101       0950   69 72  170/  4/  6 1017.8F   7/15   7/310
BUOY 51100       NOT AVBL
BUOY 51002       1010   76 77   80/ 16/ 19 1015.5
BUOY 51003       0950   75 76   80/ 10/ 12 1016.4R   7/15   7/280
BUOY 51004       0950      76  100/ 14/ 16 1016.6F   7/15   7/330
BARBERS PT BUOY  NOT AVBL
WAIMEA BAY BUOY  1002      74                N/A     6/15   5/310
KAILUA BAY BUOY  1004      75                N/A     5/ 9   2/350
LANAI BUOY       1015      76                N/A     3/13   2/270
BARBERS PT 2     NOT AVBL
PAUWELA MAUI     1009      75                N/A     6/15   3/330
HILO             1012      75                N/A     6/15   3/330
KANEOHE BAY BUOY 1006      75                N/A     4/ 9   2/350
HANALEI KAUAI    0952      75                N/A     6/13   5/300
KAHULUI HARBOR   1000   71 74  280/  4/  5 1017.2
HONOLULU HARBOR  1000   70 75  350/  3/  4 1018.2
KILO NALU        NOT AVBL
HILO HARBOR      1000   67 76  190/  5/  6 1017.7
MOKUOLOE         0936   70 73  190/  2/  4 1017.7R
NAWILIWILI       1000   63     280/  3/  5 1017.8
WHOTS BUOY       NOT AVBL
BUOY 51028       NOT AVBL
$$

......................KEY........................................
  SKY/WX - SKY CONDITIONS/PRESENT WEATHER
  TMP    - TEMPERATURE IN FAHRENHEIT
  DWPT   - DEWPOINT IN FAHRENHEIT
  RH     - RELATIVE HUMIDITY IN PERCENT
  WIND   - DIRECTION AND SPEED /MPH FOR ISLANDS...KTS FOR BUOYS/
  PRES   - MEAN SEA LEVEL PRESSURE IN INCHES OF HG
  VSB    - VISIBILITY IN MILES
  HX     - HEAT INDEX
  WCI    - WIND CHILL INDEX
  VRB    - VARIABLE WIND DIRECTION
  N/A    - NOT AVAILABLE




USA.gov is the U.S. government's official web portal to all federal, state and local government web resources and services.